Year,Month,Day,Hour,Minute,Value (Times are PST for temperature in C)
2014,07,13,00,00,18.00
2014,07,13,00,01,18.00
2014,07,13,00,02,18.00
2014,07,13,00,03,17.90
2014,07,13,00,04,17.90
2014,07,13,00,05,17.90
2014,07,13,00,06,17.90
2014,07,13,00,07,17.80
2014,07,13,00,08,17.80
2014,07,13,00,09,17.80
2014,07,13,00,10,17.70
2014,07,13,00,11,17.70
2014,07,13,00,12,17.60
2014,07,13,00,13,17.60
2014,07,13,00,14,17.50
2014,07,13,00,15,17.50
2014,07,13,00,16,17.40
2014,07,13,00,17,17.40
2014,07,13,00,18,17.30
2014,07,13,00,19,17.30
2014,07,13,00,20,17.30
2014,07,13,00,21,17.30
2014,07,13,00,22,17.20
2014,07,13,00,23,17.20
2014,07,13,00,24,17.20
2014,07,13,00,25,17.10
2014,07,13,00,26,17.10
2014,07,13,00,27,17.10
2014,07,13,00,28,17.10
2014,07,13,00,29,17.00
2014,07,13,00,30,17.00
2014,07,13,00,31,16.90
2014,07,13,00,32,16.80
2014,07,13,00,33,16.80
2014,07,13,00,34,16.80
2014,07,13,00,35,16.70
2014,07,13,00,36,16.70
2014,07,13,00,37,16.70
2014,07,13,00,38,16.60
2014,07,13,00,39,16.60
2014,07,13,00,40,16.60
2014,07,13,00,41,16.50
2014,07,13,00,42,16.50
2014,07,13,00,43,16.50
2014,07,13,00,44,16.40
2014,07,13,00,45,16.40
2014,07,13,00,46,16.40
2014,07,13,00,47,16.40
2014,07,13,00,48,16.30
2014,07,13,00,49,16.30
2014,07,13,00,50,16.30
2014,07,13,00,51,16.30
2014,07,13,00,52,16.30
2014,07,13,00,53,16.20
2014,07,13,00,54,16.20
2014,07,13,00,55,16.20
2014,07,13,00,56,16.20
2014,07,13,00,57,16.20
2014,07,13,00,58,16.20
2014,07,13,00,59,16.10
2014,07,13,01,00,16.10
2014,07,13,01,01,16.10
2014,07,13,01,02,16.10
2014,07,13,01,03,16.10
2014,07,13,01,04,16.00
2014,07,13,01,05,16.00
2014,07,13,01,06,15.90
2014,07,13,01,07,15.90
2014,07,13,01,08,15.80
2014,07,13,01,09,15.80
2014,07,13,01,10,15.80
2014,07,13,01,11,15.70
2014,07,13,01,12,15.70
2014,07,13,01,13,15.70
2014,07,13,01,14,15.70
2014,07,13,01,15,15.70
2014,07,13,01,16,15.70
2014,07,13,01,17,15.70
2014,07,13,01,18,15.60
2014,07,13,01,19,15.60
2014,07,13,01,20,15.60
2014,07,13,01,21,15.60
2014,07,13,01,22,15.60
2014,07,13,01,23,15.60
2014,07,13,01,24,15.60
2014,07,13,01,25,15.50
2014,07,13,01,26,15.50
2014,07,13,01,27,15.50
2014,07,13,01,28,15.40
2014,07,13,01,29,15.40
2014,07,13,01,30,15.40
2014,07,13,01,31,15.40
2014,07,13,01,32,15.40
2014,07,13,01,33,15.30
2014,07,13,01,34,15.30
2014,07,13,01,35,15.30
2014,07,13,01,36,15.30
2014,07,13,01,37,15.30
2014,07,13,01,38,15.30
2014,07,13,01,39,15.30
2014,07,13,01,40,15.30
2014,07,13,01,41,15.30
2014,07,13,01,42,15.30
2014,07,13,01,43,15.30
2014,07,13,01,44,15.30
2014,07,13,01,45,15.30
2014,07,13,01,46,15.30
2014,07,13,01,47,15.30
2014,07,13,01,48,15.30
2014,07,13,01,49,15.30
2014,07,13,01,50,15.30
2014,07,13,01,51,15.30
2014,07,13,01,52,15.20
2014,07,13,01,53,15.20
2014,07,13,01,54,15.20
2014,07,13,01,55,15.20
2014,07,13,01,56,15.20
2014,07,13,01,57,15.20
2014,07,13,01,58,15.20
2014,07,13,01,59,15.20
2014,07,13,02,00,15.20
2014,07,13,02,01,15.10
2014,07,13,02,02,15.10
2014,07,13,02,03,15.10
2014,07,13,02,04,15.10
2014,07,13,02,05,15.10
2014,07,13,02,06,15.10
2014,07,13,02,07,15.10
2014,07,13,02,08,15.10
2014,07,13,02,09,15.10
2014,07,13,02,10,15.10
2014,07,13,02,11,15.00
2014,07,13,02,12,15.00
2014,07,13,02,13,15.00
2014,07,13,02,14,15.00
2014,07,13,02,15,15.00
2014,07,13,02,16,14.90
2014,07,13,02,17,14.90
2014,07,13,02,18,14.90
2014,07,13,02,19,14.90
2014,07,13,02,20,14.90
2014,07,13,02,21,14.90
2014,07,13,02,22,14.90
2014,07,13,02,23,14.90
2014,07,13,02,24,14.80
2014,07,13,02,25,14.80
2014,07,13,02,26,14.80
2014,07,13,02,27,14.80
2014,07,13,02,28,14.80
2014,07,13,02,29,14.80
2014,07,13,02,30,14.80
2014,07,13,02,31,14.80
2014,07,13,02,32,14.70
2014,07,13,02,33,14.70
2014,07,13,02,34,14.70
2014,07,13,02,35,14.70
2014,07,13,02,36,14.70
2014,07,13,02,37,14.70
2014,07,13,02,38,14.70
2014,07,13,02,39,14.60
2014,07,13,02,40,14.60
2014,07,13,02,41,14.60
2014,07,13,02,42,14.60
2014,07,13,02,43,14.60
2014,07,13,02,44,14.60
2014,07,13,02,45,14.50
2014,07,13,02,46,14.50
2014,07,13,02,47,14.50
2014,07,13,02,48,14.50
2014,07,13,02,49,14.40
2014,07,13,02,50,14.40
2014,07,13,02,51,14.40
2014,07,13,02,52,14.40
2014,07,13,02,53,14.40
2014,07,13,02,54,14.40
2014,07,13,02,55,14.40
2014,07,13,02,56,14.40
2014,07,13,02,57,14.30
2014,07,13,02,58,14.30
2014,07,13,02,59,14.30
2014,07,13,03,00,14.30
2014,07,13,03,01,14.30
2014,07,13,03,02,14.30
2014,07,13,03,03,14.30
2014,07,13,03,04,14.30
2014,07,13,03,05,14.30
2014,07,13,03,06,14.30
2014,07,13,03,07,14.30
2014,07,13,03,08,14.30
2014,07,13,03,09,14.30
2014,07,13,03,10,14.30
2014,07,13,03,11,14.30
2014,07,13,03,12,14.30
2014,07,13,03,13,14.30
2014,07,13,03,14,14.30
2014,07,13,03,15,14.30
2014,07,13,03,16,14.30
2014,07,13,03,17,14.30
2014,07,13,03,18,14.30
2014,07,13,03,19,14.30
2014,07,13,03,20,14.30
2014,07,13,03,21,14.30
2014,07,13,03,22,14.30
2014,07,13,03,23,14.30
2014,07,13,03,24,14.30
2014,07,13,03,25,14.30
2014,07,13,03,26,14.30
2014,07,13,03,27,14.30
2014,07,13,03,28,14.30
2014,07,13,03,29,14.30
2014,07,13,03,30,14.30
2014,07,13,03,31,14.30
2014,07,13,03,32,14.30
2014,07,13,03,33,14.30
2014,07,13,03,34,14.40
2014,07,13,03,35,14.40
2014,07,13,03,36,14.40
2014,07,13,03,37,14.40
2014,07,13,03,38,14.40
2014,07,13,03,39,14.30
2014,07,13,03,40,14.30
2014,07,13,03,41,14.30
2014,07,13,03,42,14.30
2014,07,13,03,43,14.30
2014,07,13,03,44,14.30
2014,07,13,03,45,14.30
2014,07,13,03,46,14.30
2014,07,13,03,47,14.40
2014,07,13,03,48,14.40
2014,07,13,03,49,14.40
2014,07,13,03,50,14.40
2014,07,13,03,51,14.50
2014,07,13,03,52,14.50
2014,07,13,03,53,14.60
2014,07,13,03,54,14.60
2014,07,13,03,55,14.70
2014,07,13,03,56,14.70
2014,07,13,03,57,14.70
2014,07,13,03,58,14.80
2014,07,13,03,59,14.80
2014,07,13,04,00,14.90
2014,07,13,04,01,14.90
2014,07,13,04,02,15.00
2014,07,13,04,03,15.00
2014,07,13,04,04,15.10
2014,07,13,04,05,15.10
2014,07,13,04,06,15.10
2014,07,13,04,07,15.10
2014,07,13,04,08,15.20
2014,07,13,04,09,15.20
2014,07,13,04,10,15.10
2014,07,13,04,11,15.10
2014,07,13,04,12,15.10
2014,07,13,04,13,15.10
2014,07,13,04,14,15.10
2014,07,13,04,15,15.10
2014,07,13,04,16,15.00
2014,07,13,04,17,15.00
2014,07,13,04,18,15.00
2014,07,13,04,19,15.00
2014,07,13,04,20,15.00
2014,07,13,04,21,15.00
2014,07,13,04,22,14.90
2014,07,13,04,23,15.00
2014,07,13,04,24,15.00
2014,07,13,04,25,15.00
2014,07,13,04,26,15.00
2014,07,13,04,27,15.00
2014,07,13,04,28,14.90
2014,07,13,04,29,14.90
2014,07,13,04,30,14.90
2014,07,13,04,31,14.90
2014,07,13,04,32,14.90
2014,07,13,04,33,14.90
2014,07,13,04,34,14.90
2014,07,13,04,35,14.90
2014,07,13,04,36,14.80
2014,07,13,04,37,14.80
2014,07,13,04,38,14.80
2014,07,13,04,39,14.80
2014,07,13,04,40,14.80
2014,07,13,04,41,14.80
2014,07,13,04,42,14.90
2014,07,13,04,43,14.90
2014,07,13,04,44,14.90
2014,07,13,04,45,14.90
2014,07,13,04,46,14.90
2014,07,13,04,47,14.90
2014,07,13,04,48,14.90
2014,07,13,04,49,14.90
2014,07,13,04,50,14.90
2014,07,13,04,51,14.90
2014,07,13,04,52,14.90
2014,07,13,04,53,14.90
2014,07,13,04,54,14.90
2014,07,13,04,55,14.90
2014,07,13,04,56,14.90
2014,07,13,04,57,14.90
2014,07,13,04,58,14.90
2014,07,13,04,59,14.90
2014,07,13,05,00,14.90
2014,07,13,05,01,14.90
2014,07,13,05,02,14.90
2014,07,13,05,03,14.90
2014,07,13,05,04,14.90
2014,07,13,05,05,14.90
2014,07,13,05,06,15.00
2014,07,13,05,07,15.00
2014,07,13,05,08,15.00
2014,07,13,05,09,15.00
2014,07,13,05,10,15.00
2014,07,13,05,11,15.00
2014,07,13,05,12,14.90
2014,07,13,05,13,14.90
2014,07,13,05,14,14.80
2014,07,13,05,15,14.80
2014,07,13,05,16,14.80
2014,07,13,05,17,14.80
2014,07,13,05,18,14.70
2014,07,13,05,19,14.70
2014,07,13,05,20,14.70
2014,07,13,05,21,14.60
2014,07,13,05,22,14.60
2014,07,13,05,23,14.60
2014,07,13,05,24,14.50
2014,07,13,05,25,14.50
2014,07,13,05,26,14.50
2014,07,13,05,27,14.50
2014,07,13,05,28,14.40
2014,07,13,05,29,14.40
2014,07,13,05,30,14.40
2014,07,13,05,31,14.40
2014,07,13,05,32,14.40
2014,07,13,05,33,14.40
2014,07,13,05,34,14.30
2014,07,13,05,35,14.30
2014,07,13,05,36,14.30
2014,07,13,05,37,14.30
2014,07,13,05,38,14.30
2014,07,13,05,39,14.30
2014,07,13,05,40,14.30
2014,07,13,05,41,14.30
2014,07,13,05,42,14.30
2014,07,13,05,43,14.40
2014,07,13,05,44,14.40
2014,07,13,05,45,14.40
2014,07,13,05,46,14.40
2014,07,13,05,47,14.40
2014,07,13,05,48,14.40
2014,07,13,05,49,14.40
2014,07,13,05,50,14.40
2014,07,13,05,51,14.40
2014,07,13,05,52,14.40
2014,07,13,05,53,14.40
2014,07,13,05,54,14.40
2014,07,13,05,55,14.40
2014,07,13,05,56,14.40
2014,07,13,05,57,14.40
2014,07,13,05,58,14.40
2014,07,13,05,59,14.50
2014,07,13,06,00,14.60
2014,07,13,06,01,14.70
2014,07,13,06,02,14.80
2014,07,13,06,03,14.90
2014,07,13,06,04,15.10
2014,07,13,06,05,15.30
2014,07,13,06,06,15.50
2014,07,13,06,07,15.80
2014,07,13,06,08,16.00
2014,07,13,06,09,16.20
2014,07,13,06,10,16.30
2014,07,13,06,11,16.50
2014,07,13,06,12,16.60
2014,07,13,06,13,16.70
2014,07,13,06,14,16.80
2014,07,13,06,15,16.80
2014,07,13,06,16,16.90
2014,07,13,06,17,17.00
2014,07,13,06,18,17.00
2014,07,13,06,19,17.00
2014,07,13,06,20,17.00
2014,07,13,06,21,17.10
2014,07,13,06,22,17.10
2014,07,13,06,23,17.10
2014,07,13,06,24,17.20
2014,07,13,06,25,17.20
2014,07,13,06,26,17.20
2014,07,13,06,27,17.20
2014,07,13,06,28,17.20
2014,07,13,06,29,17.30
2014,07,13,06,30,17.30
2014,07,13,06,31,17.30
2014,07,13,06,32,17.40
2014,07,13,06,33,17.40
2014,07,13,06,34,17.50
2014,07,13,06,35,17.50
2014,07,13,06,36,17.60
2014,07,13,06,37,17.60
2014,07,13,06,38,17.60
2014,07,13,06,39,17.60
2014,07,13,06,40,17.70
2014,07,13,06,41,17.70
2014,07,13,06,42,17.70
2014,07,13,06,43,17.70
2014,07,13,06,44,17.70
2014,07,13,06,45,17.80
2014,07,13,06,46,17.80
2014,07,13,06,47,17.80
2014,07,13,06,48,17.80
2014,07,13,06,49,17.80
2014,07,13,06,50,17.90
2014,07,13,06,51,17.90
2014,07,13,06,52,17.90
2014,07,13,06,53,17.90
2014,07,13,06,54,18.00
2014,07,13,06,55,18.00
2014,07,13,06,56,18.00
2014,07,13,06,57,18.10
2014,07,13,06,58,18.10
2014,07,13,06,59,18.20
2014,07,13,07,00,18.20
2014,07,13,07,01,18.30
2014,07,13,07,02,18.30
2014,07,13,07,03,18.40
2014,07,13,07,04,18.40
2014,07,13,07,05,18.50
2014,07,13,07,06,18.50
2014,07,13,07,07,18.60
2014,07,13,07,08,18.60
2014,07,13,07,09,18.70
2014,07,13,07,10,18.70
2014,07,13,07,11,18.70
2014,07,13,07,12,18.80
2014,07,13,07,13,18.80
2014,07,13,07,14,18.80
2014,07,13,07,15,18.90
2014,07,13,07,16,18.90
2014,07,13,07,17,18.90
2014,07,13,07,18,18.90
2014,07,13,07,19,18.90
2014,07,13,07,20,19.00
2014,07,13,07,21,19.00
2014,07,13,07,22,19.10
2014,07,13,07,23,19.10
2014,07,13,07,24,19.10
2014,07,13,07,25,19.20
2014,07,13,07,26,19.20
2014,07,13,07,27,19.20
2014,07,13,07,28,19.30
2014,07,13,07,29,19.30
2014,07,13,07,30,19.30
2014,07,13,07,31,19.40
2014,07,13,07,32,19.50
2014,07,13,07,33,19.50
2014,07,13,07,34,19.60
2014,07,13,07,35,19.60
2014,07,13,07,36,19.70
2014,07,13,07,37,19.70
2014,07,13,07,38,19.80
2014,07,13,07,39,19.80
2014,07,13,07,40,19.90
2014,07,13,07,41,19.90
2014,07,13,07,42,20.00
2014,07,13,07,43,20.10
2014,07,13,07,44,20.10
2014,07,13,07,45,20.20
2014,07,13,07,46,20.20
2014,07,13,07,47,20.30
2014,07,13,07,48,20.30
2014,07,13,07,49,20.40
2014,07,13,07,50,20.40
2014,07,13,07,51,20.50
2014,07,13,07,52,20.50
2014,07,13,07,53,20.60
2014,07,13,07,54,20.60
2014,07,13,07,55,20.60
2014,07,13,07,56,20.60
2014,07,13,07,57,20.70
2014,07,13,07,58,20.70
2014,07,13,07,59,20.70
2014,07,13,08,00,20.70
2014,07,13,08,01,20.70
2014,07,13,08,02,20.80
2014,07,13,08,03,20.80
2014,07,13,08,04,20.80
2014,07,13,08,05,20.90
2014,07,13,08,06,20.90
2014,07,13,08,07,21.00
2014,07,13,08,08,21.10
2014,07,13,08,09,21.10
2014,07,13,08,10,21.10
2014,07,13,08,11,21.20
2014,07,13,08,12,21.20
2014,07,13,08,13,21.20
2014,07,13,08,14,21.30
2014,07,13,08,15,21.30
2014,07,13,08,16,21.30
2014,07,13,08,17,21.40
2014,07,13,08,18,21.40
2014,07,13,08,19,21.40
2014,07,13,08,20,21.40
2014,07,13,08,21,21.40
2014,07,13,08,22,21.50
2014,07,13,08,23,21.50
2014,07,13,08,24,21.60
2014,07,13,08,25,21.60
2014,07,13,08,26,21.60
2014,07,13,08,27,21.60
2014,07,13,08,28,21.60
2014,07,13,08,29,21.70
2014,07,13,08,30,21.70
2014,07,13,08,31,21.70
2014,07,13,08,32,21.70
2014,07,13,08,33,21.80
2014,07,13,08,34,21.80
2014,07,13,08,35,21.80
2014,07,13,08,36,21.80
2014,07,13,08,37,21.80
2014,07,13,08,38,21.90
2014,07,13,08,39,21.90
2014,07,13,08,40,21.90
2014,07,13,08,41,21.90
2014,07,13,08,42,21.90
2014,07,13,08,43,21.90
2014,07,13,08,44,22.00
2014,07,13,08,45,22.00
2014,07,13,08,46,22.00
2014,07,13,08,47,22.00
2014,07,13,08,48,22.00
2014,07,13,08,49,22.00
2014,07,13,08,50,22.10
2014,07,13,08,51,22.10
2014,07,13,08,52,22.10
2014,07,13,08,53,22.10
2014,07,13,08,54,22.10
2014,07,13,08,55,22.20
2014,07,13,08,56,22.20
2014,07,13,08,57,22.20
2014,07,13,08,58,22.20
2014,07,13,08,59,22.20
2014,07,13,09,00,22.20
2014,07,13,09,01,22.30
2014,07,13,09,02,22.30
2014,07,13,09,03,22.40
2014,07,13,09,04,22.40
2014,07,13,09,05,22.40
2014,07,13,09,06,22.50
2014,07,13,09,07,22.50
2014,07,13,09,08,22.60
2014,07,13,09,09,22.60
2014,07,13,09,10,22.70
2014,07,13,09,11,22.70
2014,07,13,09,12,22.70
2014,07,13,09,13,22.70
2014,07,13,09,14,22.80
2014,07,13,09,15,22.80
2014,07,13,09,16,22.80
2014,07,13,09,17,22.80
2014,07,13,09,18,22.80
2014,07,13,09,19,22.80
2014,07,13,09,20,22.80
2014,07,13,09,21,22.80
2014,07,13,09,22,22.90
2014,07,13,09,23,22.90
2014,07,13,09,24,22.90
2014,07,13,09,25,22.90
2014,07,13,09,26,22.90
2014,07,13,09,27,23.00
2014,07,13,09,28,23.00
2014,07,13,09,29,23.00
2014,07,13,09,30,23.00
2014,07,13,09,31,23.10
2014,07,13,09,32,23.10
2014,07,13,09,33,23.10
2014,07,13,09,34,23.10
2014,07,13,09,35,23.20
2014,07,13,09,36,23.20
2014,07,13,09,37,23.20
2014,07,13,09,38,23.20
2014,07,13,09,39,23.20
2014,07,13,09,40,23.20
2014,07,13,09,41,23.20
2014,07,13,09,42,23.20
2014,07,13,09,43,23.20
2014,07,13,09,44,23.30
2014,07,13,09,45,23.30
2014,07,13,09,46,23.30
2014,07,13,09,47,23.30
2014,07,13,09,48,23.40
2014,07,13,09,49,23.40
2014,07,13,09,50,23.50
2014,07,13,09,51,23.50
2014,07,13,09,52,23.60
2014,07,13,09,53,23.60
2014,07,13,09,54,23.60
2014,07,13,09,55,23.70
2014,07,13,09,56,23.70
2014,07,13,09,57,23.70
2014,07,13,09,58,23.80
2014,07,13,09,59,23.80
2014,07,13,10,00,23.80
2014,07,13,10,01,23.80
2014,07,13,10,02,23.90
2014,07,13,10,03,23.90
2014,07,13,10,04,23.90
2014,07,13,10,05,24.00
2014,07,13,10,06,24.00
2014,07,13,10,07,24.10
2014,07,13,10,08,24.10
2014,07,13,10,09,24.10
2014,07,13,10,10,24.20
2014,07,13,10,11,24.20
2014,07,13,10,12,24.20
2014,07,13,10,13,24.20
2014,07,13,10,14,24.30
2014,07,13,10,15,24.30
2014,07,13,10,16,24.30
2014,07,13,10,17,24.30
2014,07,13,10,18,24.30
2014,07,13,10,19,24.30
2014,07,13,10,20,24.30
2014,07,13,10,21,24.30
2014,07,13,10,22,24.30
2014,07,13,10,23,24.40
2014,07,13,10,24,24.40
2014,07,13,10,25,24.50
2014,07,13,10,26,24.60
2014,07,13,10,27,24.60
2014,07,13,10,28,24.60
2014,07,13,10,29,24.70
2014,07,13,10,30,24.80
2014,07,13,10,31,24.80
2014,07,13,10,32,24.80
2014,07,13,10,33,24.80
2014,07,13,10,34,24.80
2014,07,13,10,35,24.90
2014,07,13,10,36,24.90
2014,07,13,10,37,24.90
2014,07,13,10,38,24.80
2014,07,13,10,39,24.70
2014,07,13,10,40,24.80
2014,07,13,10,41,24.80
2014,07,13,10,42,24.80
2014,07,13,10,43,24.80
2014,07,13,10,44,24.80
2014,07,13,10,45,24.70
2014,07,13,10,46,24.80
2014,07,13,10,47,24.80
2014,07,13,10,48,24.90
2014,07,13,10,49,25.00
2014,07,13,10,50,25.00
2014,07,13,10,51,25.10
2014,07,13,10,52,25.10
2014,07,13,10,53,25.10
2014,07,13,10,54,25.20
2014,07,13,10,55,25.20
2014,07,13,10,56,25.30
2014,07,13,10,57,25.30
2014,07,13,10,58,25.40
2014,07,13,10,59,25.40
2014,07,13,11,00,25.40
2014,07,13,11,01,25.40
2014,07,13,11,02,25.50
2014,07,13,11,03,25.50
2014,07,13,11,04,25.60
2014,07,13,11,05,25.70
2014,07,13,11,06,25.80
2014,07,13,11,07,25.90
2014,07,13,11,08,25.90
2014,07,13,11,09,25.80
2014,07,13,11,10,25.80
2014,07,13,11,11,25.80
2014,07,13,11,12,25.80
2014,07,13,11,13,25.80
2014,07,13,11,14,25.80
2014,07,13,11,15,25.80
2014,07,13,11,16,25.70
2014,07,13,11,17,25.70
2014,07,13,11,18,25.70
2014,07,13,11,19,25.80
2014,07,13,11,20,25.80
2014,07,13,11,21,25.80
2014,07,13,11,22,25.90
2014,07,13,11,23,25.90
2014,07,13,11,24,26.00
2014,07,13,11,25,26.00
2014,07,13,11,26,26.00
2014,07,13,11,27,26.10
2014,07,13,11,28,26.10
2014,07,13,11,29,26.10
2014,07,13,11,30,26.00
2014,07,13,11,31,26.00
2014,07,13,11,32,26.10
2014,07,13,11,33,26.10
2014,07,13,11,34,26.10
2014,07,13,11,35,26.10
2014,07,13,11,36,26.10
2014,07,13,11,37,26.20
2014,07,13,11,38,26.20
2014,07,13,11,39,26.20
2014,07,13,11,40,26.30
2014,07,13,11,41,26.30
2014,07,13,11,42,26.30
2014,07,13,11,43,26.30
2014,07,13,11,44,26.40
2014,07,13,11,45,26.60
2014,07,13,11,46,26.60
2014,07,13,11,47,26.70
2014,07,13,11,48,26.60
2014,07,13,11,49,26.60
2014,07,13,11,50,26.60
2014,07,13,11,51,26.60
2014,07,13,11,52,26.70
2014,07,13,11,53,26.70
2014,07,13,11,54,26.80
2014,07,13,11,55,26.80
2014,07,13,11,56,26.80
2014,07,13,11,57,26.80
2014,07,13,11,58,26.80
2014,07,13,11,59,26.80
2014,07,13,12,00,26.80
2014,07,13,12,01,26.80
2014,07,13,12,02,26.80
2014,07,13,12,03,26.80
2014,07,13,12,04,26.80
2014,07,13,12,05,26.80
2014,07,13,12,06,26.80
2014,07,13,12,07,26.80
2014,07,13,12,08,26.80
2014,07,13,12,09,26.70
2014,07,13,12,10,26.70
2014,07,13,12,11,26.70
2014,07,13,12,12,26.70
2014,07,13,12,13,26.80
2014,07,13,12,14,26.80
2014,07,13,12,15,26.80
2014,07,13,12,16,26.80
2014,07,13,12,17,26.80
2014,07,13,12,18,26.80
2014,07,13,12,19,26.80
2014,07,13,12,20,26.80
2014,07,13,12,21,26.80
2014,07,13,12,22,26.70
2014,07,13,12,23,26.60
2014,07,13,12,24,26.60
2014,07,13,12,25,26.60
2014,07,13,12,26,26.60
2014,07,13,12,27,26.60
2014,07,13,12,28,26.60
2014,07,13,12,29,26.60
2014,07,13,12,30,26.60
2014,07,13,12,31,26.60
2014,07,13,12,32,26.70
2014,07,13,12,33,26.80
2014,07,13,12,34,26.80
2014,07,13,12,35,26.90
2014,07,13,12,36,27.00
2014,07,13,12,37,27.20
2014,07,13,12,38,27.30
2014,07,13,12,39,27.30
2014,07,13,12,40,27.40
2014,07,13,12,41,27.40
2014,07,13,12,42,27.50
2014,07,13,12,43,27.60
2014,07,13,12,44,27.60
2014,07,13,12,45,27.70
2014,07,13,12,46,27.70
2014,07,13,12,47,27.70
2014,07,13,12,48,27.80
2014,07,13,12,49,27.80
2014,07,13,12,50,27.80
2014,07,13,12,51,27.80
2014,07,13,12,52,27.80
2014,07,13,12,53,27.80
2014,07,13,12,54,27.80
2014,07,13,12,55,27.80
2014,07,13,12,56,27.90
2014,07,13,12,57,27.90
2014,07,13,12,58,27.90
2014,07,13,12,59,27.90
2014,07,13,13,00,27.90
2014,07,13,13,01,27.90
2014,07,13,13,02,27.80
2014,07,13,13,03,27.90
2014,07,13,13,04,27.90
2014,07,13,13,05,27.90
2014,07,13,13,06,28.00
2014,07,13,13,07,28.10
2014,07,13,13,08,28.20
2014,07,13,13,09,28.30
2014,07,13,13,10,28.40
2014,07,13,13,11,28.50
2014,07,13,13,12,28.50
2014,07,13,13,13,28.60
2014,07,13,13,14,28.70
2014,07,13,13,15,28.80
2014,07,13,13,16,28.80
2014,07,13,13,17,28.90
2014,07,13,13,18,28.90
2014,07,13,13,19,29.00
2014,07,13,13,20,29.10
2014,07,13,13,21,29.20
2014,07,13,13,22,29.30
2014,07,13,13,23,29.40
2014,07,13,13,24,29.40
2014,07,13,13,25,29.50
2014,07,13,13,26,29.50
2014,07,13,13,27,29.50
2014,07,13,13,28,29.60
2014,07,13,13,29,29.60
2014,07,13,13,30,29.60
2014,07,13,13,31,29.60
2014,07,13,13,32,29.60
2014,07,13,13,33,29.60
2014,07,13,13,34,29.50
2014,07,13,13,35,29.50
2014,07,13,13,36,29.40
2014,07,13,13,37,29.50
2014,07,13,13,38,29.50
2014,07,13,13,39,29.50
2014,07,13,13,40,29.50
2014,07,13,13,41,29.50
2014,07,13,13,42,29.60
2014,07,13,13,43,29.70
2014,07,13,13,44,29.70
2014,07,13,13,45,29.80
2014,07,13,13,46,29.80
2014,07,13,13,47,29.80
2014,07,13,13,48,29.80
2014,07,13,13,49,29.80
2014,07,13,13,50,29.80
2014,07,13,13,51,29.80
2014,07,13,13,52,29.80
2014,07,13,13,53,29.90
2014,07,13,13,54,29.90
2014,07,13,13,55,29.90
2014,07,13,13,56,29.90
2014,07,13,13,57,29.90
2014,07,13,13,58,30.00
2014,07,13,13,59,30.10
2014,07,13,14,00,30.20
2014,07,13,14,01,30.40
2014,07,13,14,02,30.50
2014,07,13,14,03,30.50
2014,07,13,14,04,30.50
2014,07,13,14,05,30.40
2014,07,13,14,06,30.30
2014,07,13,14,07,30.20
2014,07,13,14,08,30.10
2014,07,13,14,09,29.90
2014,07,13,14,10,29.80
2014,07,13,14,11,29.70
2014,07,13,14,12,29.50
2014,07,13,14,13,29.50
2014,07,13,14,14,29.40
2014,07,13,14,15,29.40
2014,07,13,14,16,29.30
2014,07,13,14,17,29.30
2014,07,13,14,18,29.30
2014,07,13,14,19,29.30
2014,07,13,14,20,29.30
2014,07,13,14,21,29.30
2014,07,13,14,22,29.30
2014,07,13,14,23,29.30
2014,07,13,14,24,29.30
2014,07,13,14,25,29.30
2014,07,13,14,26,29.30
2014,07,13,14,27,29.30
2014,07,13,14,28,29.30
2014,07,13,14,29,29.30
2014,07,13,14,30,29.30
2014,07,13,14,31,29.30
2014,07,13,14,32,29.40
2014,07,13,14,33,29.50
2014,07,13,14,34,29.60
2014,07,13,14,35,29.70
2014,07,13,14,36,29.80
2014,07,13,14,37,29.90
2014,07,13,14,38,30.00
2014,07,13,14,39,30.10
2014,07,13,14,40,30.10
2014,07,13,14,41,30.20
2014,07,13,14,42,30.30
2014,07,13,14,43,30.30
2014,07,13,14,44,30.40
2014,07,13,14,45,30.40
2014,07,13,14,46,30.40
2014,07,13,14,47,30.40
2014,07,13,14,48,30.40
2014,07,13,14,49,30.30
2014,07,13,14,50,30.20
2014,07,13,14,51,30.20
2014,07,13,14,52,30.20
2014,07,13,14,53,30.20
2014,07,13,14,54,30.30
2014,07,13,14,55,30.30
2014,07,13,14,56,30.40
2014,07,13,14,57,30.40
2014,07,13,14,58,30.40
2014,07,13,14,59,30.40
2014,07,13,15,00,30.40
2014,07,13,15,01,30.40
2014,07,13,15,02,30.40
2014,07,13,15,03,30.50
2014,07,13,15,04,30.50
2014,07,13,15,05,30.60
2014,07,13,15,06,30.70
2014,07,13,15,07,30.70
2014,07,13,15,08,30.70
2014,07,13,15,09,30.70
2014,07,13,15,10,30.70
2014,07,13,15,11,30.70
2014,07,13,15,12,30.70
2014,07,13,15,13,30.70
2014,07,13,15,14,30.70
2014,07,13,15,15,30.60
2014,07,13,15,16,30.40
2014,07,13,15,17,30.20
2014,07,13,15,18,30.10
2014,07,13,15,19,29.90
2014,07,13,15,20,29.80
2014,07,13,15,21,29.70
2014,07,13,15,22,29.60
2014,07,13,15,23,29.60
2014,07,13,15,24,29.70
2014,07,13,15,25,29.70
2014,07,13,15,26,29.60
2014,07,13,15,27,29.60
2014,07,13,15,28,29.60
2014,07,13,15,29,29.60
2014,07,13,15,30,29.60
2014,07,13,15,31,29.60
2014,07,13,15,32,29.60
2014,07,13,15,33,29.70
2014,07,13,15,34,29.70
2014,07,13,15,35,29.60
2014,07,13,15,36,29.60
2014,07,13,15,37,29.60
2014,07,13,15,38,29.60
2014,07,13,15,39,29.60
2014,07,13,15,40,29.70
2014,07,13,15,41,29.70
2014,07,13,15,42,29.70
2014,07,13,15,43,29.70
2014,07,13,15,44,29.80
2014,07,13,15,45,29.80
2014,07,13,15,46,29.80
2014,07,13,15,47,29.70
2014,07,13,15,48,29.60
2014,07,13,15,49,29.60
2014,07,13,15,50,29.50
2014,07,13,15,51,29.40
2014,07,13,15,52,29.30
2014,07,13,15,53,29.40
2014,07,13,15,54,29.50
2014,07,13,15,55,29.60
2014,07,13,15,56,29.60
2014,07,13,15,57,29.60
2014,07,13,15,58,29.60
2014,07,13,15,59,29.60
2014,07,13,16,00,29.60
2014,07,13,16,01,29.70
2014,07,13,16,02,29.80
2014,07,13,16,03,30.00
2014,07,13,16,04,30.10
2014,07,13,16,05,30.20
2014,07,13,16,06,30.20
2014,07,13,16,07,30.30
2014,07,13,16,08,30.30
2014,07,13,16,09,30.40
2014,07,13,16,10,30.50
2014,07,13,16,11,30.50
2014,07,13,16,12,30.50
2014,07,13,16,13,30.50
2014,07,13,16,14,30.50
2014,07,13,16,15,30.60
2014,07,13,16,16,30.70
2014,07,13,16,17,30.80
2014,07,13,16,18,30.80
2014,07,13,16,19,30.80
2014,07,13,16,20,30.80
2014,07,13,16,21,30.80
2014,07,13,16,22,30.80
2014,07,13,16,23,30.80
2014,07,13,16,24,30.70
2014,07,13,16,25,30.70
2014,07,13,16,26,30.70
2014,07,13,16,27,30.70
2014,07,13,16,28,30.70
2014,07,13,16,29,30.70
2014,07,13,16,30,30.80
2014,07,13,16,31,30.80
2014,07,13,16,32,30.80
2014,07,13,16,33,30.80
2014,07,13,16,34,30.90
2014,07,13,16,35,30.90
2014,07,13,16,36,30.90
2014,07,13,16,37,31.00
2014,07,13,16,38,30.90
2014,07,13,16,39,30.90
2014,07,13,16,40,31.00
2014,07,13,16,41,31.00
2014,07,13,16,42,31.10
2014,07,13,16,43,31.10
2014,07,13,16,44,31.20
2014,07,13,16,45,31.30
2014,07,13,16,46,31.30
2014,07,13,16,47,31.20
2014,07,13,16,48,31.20
2014,07,13,16,49,31.30
2014,07,13,16,50,31.30
2014,07,13,16,51,31.50
2014,07,13,16,52,31.60
2014,07,13,16,53,31.60
2014,07,13,16,54,31.60
2014,07,13,16,55,31.60
2014,07,13,16,56,31.60
2014,07,13,16,57,31.60
2014,07,13,16,58,31.50
2014,07,13,16,59,31.30
2014,07,13,17,00,31.20
2014,07,13,17,01,31.10
2014,07,13,17,02,31.00
2014,07,13,17,03,30.80
2014,07,13,17,04,30.80
2014,07,13,17,05,30.60
2014,07,13,17,06,30.50
2014,07,13,17,07,30.50
2014,07,13,17,08,30.40
2014,07,13,17,09,30.40
2014,07,13,17,10,30.40
2014,07,13,17,11,30.50
2014,07,13,17,12,30.50
2014,07,13,17,13,30.50
2014,07,13,17,14,30.60
2014,07,13,17,15,30.60
2014,07,13,17,16,30.70
2014,07,13,17,17,30.70
2014,07,13,17,18,30.60
2014,07,13,17,19,30.60